Location: Holmbach
(49.5093°N, 8.8411°E)
Time: 20:10:04
(UTC+00:00)

Meteor 2-5 Rocket - Pass Details

Date: 17 June 2025
Orbit: 831 x 911 km, 81.2° (Epoch: 16 July)

Event Time Altitude Azimuth Distance (km) Brightness Sun altitude
Exits shadow 23:10:08 27° 187° (S) 1,690 4.7 -17.0°
Maximum altitude 23:13:36 86° 100° (E) 921 3.8 -17.0°
Drops below altitude 10° 23:19:34 10° 13° (NNE) 2,606 7.4 -17.1°
Sets 23:22:03 0° 13° (NNE) 3,546 8.5 -17.1°
